Weather History for KS32 - May, 2013

Change the Weather History Date:

Thursday, May 9, 2013

  Actual Average (KJMS) Record (KJMS)
Temperature  
Mean Temperature 47 °F 53 °F  
Max Temperature 59 °F 66 °F 91 °F (1992)
Min Temperature 35 °F 40 °F 18 °F (1945)
Degree Days  
Heating Degree Days 18 13  
Month to date heating degree days 126  
Since 1 July heating degree days 8720  
Cooling Degree Days 0 0  
Month to date cooling degree days 0  
Year to date cooling degree days 2  
Moisture  
Dew Point 28 °F    
Average Humidity 46    
Maximum Humidity 75    
Minimum Humidity 25    
Precipitation  
Precipitation 0.00 in 0.08 in 1.05 in (1993)
Month to date precipitation 0.67  
Year to date precipitation 3.56  
Sea Level Pressure  
Sea Level Pressure 30.18 in    
Wind  
Wind Speed 17 mph (NE)    
Max Wind Speed 24 mph    
Max Gust Speed 32 mph    
Visibility 7 miles    
Events      
T = Trace of Precipitation, MM = Missing Value Source: NWS Daily Summary

Daily Weather History Graph

Daily Weather History Graph

Search for Another Location

Airport or City:

Trip Planner

Search our weather history database for the weather conditions in past years. The results will help you decide how hot, cold, wet, or windy it might be!

Date:

Astronomy

May. 09, 2013 Rise Set
Actual Time 6:03 AM CDT 8:55 PM CDT
Civil Twilight 5:27 AM CDT 9:30 PM CDT
Nautical Twilight 4:42 AM CDT 10:16 PM CDT
Astronomical Twilight 3:48 AM CDT 11:11 PM CDT
Moon 5:50 AM CDT (5/9) 8:51 PM CDT (5/9)
Length of Visible Light 16h 03m
Length of Day
14h 52m
Waning Crescent, 0% of the Moon is Illuminated
May 9
Waning Crescent
May 9
New
May 17
First Quarter
May 24
Full
May 31
Last Quarter

Hourly Weather History & Observations

Time (CDT) Temp. Windchill Dew Point Humidity Pressure Visibility Wind Dir Wind Speed Gust Speed Precip Events Conditions
12:35 AM 41.0 °F 32.2 °F 32.0 °F 70% 30.15 in 9.0 mi NNE 18.4 mph - N/A   Clear
12:55 AM 41.0 °F 32.2 °F 30.2 °F 65% 30.15 in 10.0 mi NNE 18.4 mph - N/A   Clear
1:35 AM 39.2 °F 30.5 °F 30.2 °F 70% 30.15 in 5.0 mi NNE 16.1 mph 20.7 mph N/A   Haze
1:55 AM 39.2 °F 29.8 °F 30.2 °F 70% 30.15 in 5.0 mi NNE 18.4 mph - N/A   Haze
2:55 AM 37.4 °F 28.2 °F 30.2 °F 75% 30.15 in 5.0 mi NNE 16.1 mph - N/A   Haze
4:35 AM 35.6 °F 25.9 °F 28.4 °F 75% 30.16 in 5.0 mi NNE 16.1 mph 20.7 mph N/A   Haze
4:55 AM 35.6 °F 25.2 °F 28.4 °F 75% 30.16 in 5.0 mi NNE 18.4 mph - N/A   Haze
5:15 AM 35.6 °F 25.9 °F 28.4 °F 75% 30.17 in 5.0 mi NNE 16.1 mph - N/A   Haze
5:35 AM 35.6 °F 26.6 °F 28.4 °F 75% 30.19 in 6.0 mi NNE 13.8 mph - N/A   Haze
7:15 AM 35.6 °F 25.9 °F 28.4 °F 75% 30.21 in 4.0 mi NNE 16.1 mph - N/A   Haze
9:15 AM 42.8 °F 34.5 °F 30.2 °F 61% 30.23 in 3.0 mi NNE 18.4 mph - N/A   Haze
9:55 AM 46.4 °F 39.2 °F 32.0 °F 57% 30.23 in 3.0 mi NNE 18.4 mph - N/A   Haze
10:15 AM 48.2 °F - 32.0 °F 54% 30.23 in 3.0 mi NNE 16.1 mph - N/A   Haze
10:35 AM 48.2 °F - 32.0 °F 54% 30.23 in 4.0 mi NE 17.3 mph 23.0 mph N/A   Haze
10:55 AM 50.0 °F - 32.0 °F 50% 30.24 in 5.0 mi NE 19.6 mph 24.2 mph N/A   Haze
11:15 AM 51.8 °F - 30.2 °F 44% 30.23 in 7.0 mi NE 17.3 mph 28.8 mph N/A   Clear
11:35 AM 51.8 °F - 28.4 °F 41% 30.23 in 5.0 mi NNE 21.9 mph 29.9 mph N/A   Haze
11:55 AM 53.6 °F - 26.6 °F 35% 30.23 in 7.0 mi NE 24.2 mph 32.2 mph N/A   Clear
12:15 PM 53.6 °F - 26.6 °F 35% 30.23 in 9.0 mi NE 19.6 mph 26.5 mph N/A   Clear
12:35 PM 53.6 °F - 26.6 °F 35% 30.23 in 5.0 mi NE 20.7 mph - N/A   Haze
12:55 PM 53.6 °F - 28.4 °F 38% 30.22 in 5.0 mi NE 19.6 mph 26.5 mph N/A   Haze
1:15 PM 53.6 °F - 32.0 °F 44% 30.21 in 5.0 mi NE 21.9 mph 26.5 mph N/A   Haze
1:35 PM 55.4 °F - 28.4 °F 36% 30.21 in 5.0 mi NE 21.9 mph 27.6 mph N/A   Haze
1:55 PM 55.4 °F - 26.6 °F 33% 30.21 in 6.0 mi NE 18.4 mph 25.3 mph N/A   Haze
3:15 PM 57.2 °F - 26.6 °F 31% 30.19 in 5.0 mi NE 23.0 mph 29.9 mph N/A   Haze
3:35 PM 57.2 °F - 26.6 °F 31% 30.18 in 5.0 mi NE 17.3 mph 25.3 mph N/A   Haze
3:55 PM 57.2 °F - 26.6 °F 31% 30.18 in 5.0 mi NE 17.3 mph 24.2 mph N/A   Haze
4:15 PM 57.2 °F - 28.4 °F 33% 30.18 in 7.0 mi NE 19.6 mph 24.2 mph N/A   Clear
4:35 PM 59.0 °F - 28.4 °F 31% 30.17 in 9.0 mi ENE 16.1 mph 26.5 mph N/A   Clear
4:55 PM 59.0 °F - 28.4 °F 31% 30.16 in 6.0 mi NNE 18.4 mph 26.5 mph N/A   Haze
5:15 PM 59.0 °F - 28.4 °F 31% 30.16 in 10.0 mi NE 18.4 mph 24.2 mph N/A   Clear
5:35 PM 59.0 °F - 28.4 °F 31% 30.16 in 7.0 mi NE 17.3 mph 21.9 mph N/A   Clear
5:55 PM 59.0 °F - 24.8 °F 27% 30.15 in 10.0 mi NE 19.6 mph 24.2 mph N/A   Clear
6:15 PM 59.0 °F - 23.0 °F 25% 30.16 in 9.0 mi ENE 13.8 mph - N/A   Clear
6:35 PM 57.2 °F - 23.0 °F 27% 30.15 in 10.0 mi NE 11.5 mph 20.7 mph N/A   Clear
6:55 PM 57.2 °F - 24.8 °F 29% 30.15 in 10.0 mi ENE 15.0 mph - N/A   Clear
7:15 PM 57.2 °F - 24.8 °F 29% 30.15 in 10.0 mi NE 13.8 mph 18.4 mph N/A   Clear
7:35 PM 57.2 °F - 24.8 °F 29% 30.15 in 9.0 mi ENE 11.5 mph - N/A   Clear
7:55 PM 55.4 °F - 24.8 °F 31% 30.15 in 8.0 mi NE 15.0 mph - N/A   Clear
8:15 PM 53.6 °F - 24.8 °F 33% 30.15 in 10.0 mi NE 11.5 mph - N/A   Clear
8:35 PM 53.6 °F - 24.8 °F 33% 30.15 in 7.0 mi NE 10.4 mph - N/A   Clear
8:55 PM 50.0 °F - 26.6 °F 40% 30.16 in 5.0 mi NE 10.4 mph - N/A   Haze
9:15 PM 48.2 °F - 26.6 °F 43% 30.16 in 6.0 mi NE 10.4 mph - N/A   Haze
9:35 PM 46.4 °F 41.5 °F 26.6 °F 46% 30.17 in 7.0 mi NNE 10.4 mph - N/A   Clear
9:55 PM 44.6 °F 39.2 °F 24.8 °F 46% 30.17 in 6.0 mi NE 10.4 mph - N/A   Haze
10:15 PM 44.6 °F 39.7 °F 26.6 °F 49% 30.18 in 9.0 mi NNE 9.2 mph - N/A   Clear
10:55 PM 44.6 °F 39.7 °F 26.6 °F 49% 30.19 in 9.0 mi NE 9.2 mph - N/A   Clear
11:15 PM 42.8 °F 37.0 °F 26.6 °F 53% 30.18 in 9.0 mi NE 10.4 mph - N/A   Clear
11:35 PM 44.6 °F 38.8 °F 24.8 °F 46% 30.18 in 10.0 mi NE 11.5 mph - N/A   Clear
11:55 PM 42.8 °F 37.0 °F 26.6 °F 53% 30.18 in 10.0 mi ENE 10.4 mph - N/A   Clear